Puyallup, WA

5:01 PM PDT on June 21, 2018 (GMT -0700)
Pierce County - Thun Field

Weather History for KPLU - September, 2017

Change the Weather History Date:

Wednesday, September 13, 2017

  Actual Average (WUND) Record (WUND)
Temperature  
Mean Temperature 58 °F -  
Max Temperature 69 °F - - (-1)
Min Temperature 46 °F - - (-1)
Degree Days  
Heating Degree Days 8    
Growing Degree Days 8 (Base 50)    
Moisture  
Dew Point 48 °F    
Average Humidity 71    
Maximum Humidity 93    
Minimum Humidity 43    
Precipitation  
Precipitation 0.00 in - - ()
Sea Level Pressure  
Sea Level Pressure 29.97 in    
Wind  
Wind Speed 1 mph (SW)    
Max Wind Speed 7 mph    
Max Gust Speed 12 mph    
Visibility 10 miles    
Events      
Averages and records for this station are not official NWS values.
T = Trace of Precipitation, MM = Missing Value Source: NWS Daily Summary

Daily Weather History Graph

Daily Weather History Graph

Search for Another Location

Airport or City:

Astronomy

Sep. 13, 2017 Rise Set
Actual Time 6:44 AM PDT 7:24 PM PDT
Civil Twilight 6:13 AM PDT 7:54 PM PDT
Nautical Twilight 5:37 AM PDT 8:31 PM PDT
Astronomical Twilight 4:58 AM PDT 9:09 PM PDT
Moon No Moon Rise 3:02 PM PDT (9/13)
Length of Visible Light 13h 41m
Length of Day
12h 39m
Last Quarter, 44% of the Moon is Illuminated
Sep 13
Last Quarter
Sep 19
New
Sep 27
First Quarter
Oct 5
Full
Oct 12
Last Quarter

Hourly Weather History & Observations

Time (PDT) Temp. Dew Point Humidity Pressure Visibility Wind Dir Wind Speed Gust Speed Precip Events Conditions
12:15 AM 55.4 °F 46.4 °F 72% 29.99 in 10.0 mi Calm Calm - N/A   Overcast
12:35 AM 55.4 °F 46.4 °F 72% 29.99 in 10.0 mi SW 3.5 mph - N/A   Overcast
12:55 AM 55.4 °F 46.4 °F 72% 29.99 in 10.0 mi Calm Calm - N/A   Mostly Cloudy
1:15 AM 53.6 °F 46.4 °F 77% 29.99 in 10.0 mi Calm Calm - N/A   Mostly Cloudy
1:35 AM 53.6 °F 46.4 °F 77% 29.99 in 10.0 mi Calm Calm - N/A   Mostly Cloudy
1:55 AM 51.8 °F 46.4 °F 82% 30.00 in 10.0 mi Calm Calm - N/A   Mostly Cloudy
2:15 AM 51.8 °F 46.4 °F 82% 29.99 in 10.0 mi Calm Calm - N/A   Scattered Clouds
2:35 AM 50.0 °F 46.4 °F 87% 30.00 in 10.0 mi Calm Calm - N/A   Clear
2:55 AM 48.2 °F 46.4 °F 93% 30.00 in 10.0 mi Calm Calm - N/A   Clear
3:15 AM 50.0 °F 46.4 °F 87% 29.99 in 10.0 mi Calm Calm - N/A   Scattered Clouds
3:35 AM 48.2 °F 46.4 °F 93% 29.99 in 10.0 mi Calm Calm - N/A   Mostly Cloudy
3:55 AM 48.2 °F 46.4 °F 93% 29.99 in 10.0 mi Calm Calm - N/A   Mostly Cloudy
4:15 AM 46.4 °F 44.6 °F 93% 30.00 in 10.0 mi Calm Calm - N/A   Overcast
4:35 AM 48.2 °F 46.4 °F 93% 29.99 in 10.0 mi Calm Calm - N/A   Overcast
4:55 AM 48.2 °F 46.4 °F 93% 30.00 in 10.0 mi Calm Calm - N/A   Overcast
5:15 AM 48.2 °F 46.4 °F 93% 30.00 in 10.0 mi Calm Calm - N/A   Mostly Cloudy
5:35 AM 48.2 °F 46.4 °F 93% 30.00 in 10.0 mi Calm Calm - N/A   Mostly Cloudy
5:55 AM 50.0 °F 46.4 °F 87% 30.01 in 10.0 mi Calm Calm - N/A   Overcast
6:15 AM 48.2 °F 46.4 °F 93% 30.01 in 10.0 mi Calm Calm - N/A   Overcast
6:35 AM 48.2 °F 46.4 °F 93% 30.01 in 10.0 mi Calm Calm - N/A   Mostly Cloudy
6:55 AM 48.2 °F 46.4 °F 93% 30.01 in 10.0 mi Calm Calm - N/A   Overcast
7:15 AM 48.2 °F 46.4 °F 93% 30.01 in 10.0 mi Calm Calm - N/A   Scattered Clouds
7:35 AM 50.0 °F 46.4 °F 87% 30.01 in 10.0 mi Calm Calm - N/A   Clear
7:55 AM 51.8 °F 48.2 °F 88% 30.01 in 10.0 mi Calm Calm - N/A   Clear
8:15 AM 53.6 °F 48.2 °F 82% 30.01 in 10.0 mi Calm Calm - N/A   Scattered Clouds
8:35 AM 55.4 °F 48.2 °F 77% 30.02 in 10.0 mi Calm Calm - N/A   Scattered Clouds
8:55 AM 55.4 °F 50.0 °F 82% 30.02 in 10.0 mi WSW 4.6 mph - N/A   Clear
9:15 AM 57.2 °F 50.0 °F 77% 30.02 in 10.0 mi WSW 4.6 mph - N/A   Clear
9:35 AM 59.0 °F 50.0 °F 72% 30.02 in 10.0 mi Calm Calm - N/A   Scattered Clouds
9:55 AM 59.0 °F 50.0 °F 72% 30.01 in 10.0 mi Variable 3.5 mph - N/A   Scattered Clouds
10:15 AM 60.8 °F 50.0 °F 68% 30.01 in 10.0 mi Variable 3.5 mph - N/A   Partly Cloudy
10:35 AM 60.8 °F 50.0 °F 68% 30.01 in 10.0 mi SW 4.6 mph - N/A   Clear
10:55 AM 60.8 °F 48.2 °F 63% 30.00 in 10.0 mi Calm Calm - N/A   Clear
11:15 AM 62.6 °F 48.2 °F 59% 30.00 in 10.0 mi Calm Calm - N/A   Clear
11:35 AM 62.6 °F 48.2 °F 59% 30.00 in 10.0 mi Variable 3.5 mph - N/A   Mostly Cloudy
11:55 AM 64.4 °F 48.2 °F 56% 29.99 in 10.0 mi Calm Calm - N/A   Partly Cloudy
12:15 PM 64.4 °F 48.2 °F 56% 29.99 in 10.0 mi Calm Calm - N/A   Clear
12:35 PM 66.2 °F 48.2 °F 52% 29.99 in 10.0 mi Variable 5.8 mph - N/A   Scattered Clouds
12:55 PM 66.2 °F 48.2 °F 52% 29.98 in 10.0 mi Calm Calm - N/A   Clear
1:15 PM 66.2 °F 48.2 °F 52% 29.98 in 10.0 mi Calm Calm - N/A   Partly Cloudy
1:35 PM 68.0 °F 48.2 °F 49% 29.97 in 10.0 mi Variable 3.5 mph - N/A   Partly Cloudy
1:55 PM 68.0 °F 48.2 °F 49% 29.97 in 10.0 mi Calm Calm - N/A   Scattered Clouds
2:15 PM 68.0 °F 50.0 °F 52% 29.97 in 10.0 mi Calm Calm - N/A   Partly Cloudy
2:35 PM 66.2 °F 48.2 °F 52% 29.96 in 10.0 mi Calm Calm - N/A   Clear
2:55 PM 68.0 °F 48.2 °F 49% 29.95 in 10.0 mi West 4.6 mph - N/A   Clear
3:15 PM 69.8 °F 48.2 °F 46% 29.95 in 10.0 mi Calm Calm - N/A   Scattered Clouds
3:35 PM 69.8 °F 48.2 °F 46% 29.95 in 10.0 mi Calm Calm - N/A   Partly Cloudy
3:55 PM 69.8 °F 48.2 °F 46% 29.94 in 10.0 mi Variable 6.9 mph - N/A   Scattered Clouds
4:15 PM 69.8 °F 48.2 °F 46% 29.94 in 10.0 mi Calm Calm - N/A   Scattered Clouds
4:35 PM 69.8 °F 46.4 °F 43% 29.94 in 10.0 mi Variable 3.5 mph - N/A   Partly Cloudy
4:55 PM 69.8 °F 48.2 °F 46% 29.93 in 10.0 mi Calm Calm - N/A   Scattered Clouds
5:15 PM 69.8 °F 48.2 °F 46% 29.93 in 10.0 mi Variable 4.6 mph - N/A   Clear
5:35 PM 68.0 °F 48.2 °F 49% 29.92 in 10.0 mi Variable 4.6 mph - N/A   Clear
5:55 PM 68.0 °F 46.4 °F 46% 29.92 in 10.0 mi Variable 3.5 mph - N/A   Clear
6:15 PM 68.0 °F 46.4 °F 46% 29.92 in 10.0 mi Variable 4.6 mph 11.5 mph N/A   Clear
6:35 PM 66.2 °F 48.2 °F 52% 29.92 in 10.0 mi Calm Calm - N/A   Clear
6:55 PM 64.4 °F 48.2 °F 56% 29.91 in 10.0 mi Calm Calm - N/A   Clear
7:15 PM 62.6 °F 48.2 °F 59% 29.92 in 10.0 mi Calm Calm - N/A   Clear
7:35 PM 59.0 °F 50.0 °F 72% 29.92 in 10.0 mi Calm Calm - N/A   Clear
7:55 PM 59.0 °F 50.0 °F 72% 29.91 in 10.0 mi Calm Calm - N/A   Clear
8:15 PM 57.2 °F 50.0 °F 77% 29.92 in 10.0 mi Calm Calm - N/A   Clear
8:35 PM 57.2 °F 48.2 °F 72% 29.92 in 10.0 mi Calm Calm - N/A   Clear
8:55 PM 57.2 °F 48.2 °F 72% 29.92 in 10.0 mi Calm Calm - N/A   Scattered Clouds
9:15 PM 57.2 °F 48.2 °F 72% 29.92 in 10.0 mi Calm Calm - N/A   Mostly Cloudy
9:35 PM 57.2 °F 48.2 °F 72% 29.92 in 10.0 mi Calm Calm - N/A   Scattered Clouds
9:55 PM 55.4 °F 48.2 °F 77% 29.92 in 10.0 mi Calm Calm - N/A   Scattered Clouds
10:15 PM 55.4 °F 48.2 °F 77% 29.92 in 10.0 mi Calm Calm - N/A   Scattered Clouds
10:35 PM 53.6 °F 48.2 °F 82% 29.92 in 10.0 mi Calm Calm - N/A   Scattered Clouds
10:55 PM 51.8 °F 48.2 °F 88% 29.92 in - Calm Calm - N/A   Partly Cloudy
11:15 PM 51.8 °F 48.2 °F 88% 29.92 in 10.0 mi Calm Calm - N/A   Partly Cloudy
11:35 PM 53.6 °F 50.0 °F 88% 29.91 in 10.0 mi Calm Calm - N/A   Mostly Cloudy
11:55 PM 53.6 °F 48.2 °F 82% 29.91 in 10.0 mi Calm Calm - N/A   Mostly Cloudy